Moorhead, MN

9:06 AM CST on January 22, 2018 (GMT -0600)
Moorhead Municipal

Weather History for KJKJ - March, 2013

Change the Weather History Date:

Friday, March 8, 2013

  Actual Average (KFAR) Record (KFAR)
Temperature  
Mean Temperature 24 °F -  
Max Temperature 28 °F 30 °F 54 °F (1911)
Min Temperature 21 °F 13 °F -20 °F (1891)
Degree Days  
Heating Degree Days 40    
Moisture  
Dew Point 24 °F    
Average Humidity 95    
Maximum Humidity 100    
Minimum Humidity 86    
Precipitation  
Precipitation 0.00 in - - ()
Sea Level Pressure  
Sea Level Pressure 30.19 in    
Wind  
Wind Speed 7 mph (SSE)    
Max Wind Speed 13 mph    
Max Gust Speed 18 mph    
Visibility 6 miles    
Events      
Averages and records for this station are not official NWS values.
T = Trace of Precipitation, MM = Missing Value Source: NWS Daily Summary

Daily Weather History Graph

Daily Weather History Graph

Search for Another Location

Airport or City:

Trip Planner

Search our weather history database for the weather conditions in past years. The results will help you decide how hot, cold, wet, or windy it might be!

Date:

Astronomy

Mar. 08, 2013 Rise Set
Actual Time 6:52 AM CST 6:22 PM CST
Civil Twilight 6:22 AM CST 6:53 PM CST
Nautical Twilight 5:47 AM CST 7:28 PM CST
Astronomical Twilight 5:11 AM CST 8:03 PM CST
Moon 4:48 AM CST (3/8) 3:10 PM CST (3/8)
Length of Visible Light 12h 30m
Length of Day
11h 30m
Waning Crescent, 11% of the Moon is Illuminated
Mar 8
Waning Crescent
Mar 11
New
Mar 19
First Quarter
Mar 27
Full
Apr 2
Last Quarter

Hourly Weather History & Observations

Time (CST) Temp. Windchill Dew Point Humidity Pressure Visibility Wind Dir Wind Speed Gust Speed Precip Events Conditions
12:15 AM 24.8 °F 14.0 °F 21.2 °F 86% 30.22 in 10.0 mi South 11.5 mph - N/A   Overcast
12:35 AM 24.8 °F 13.4 °F 21.2 °F 86% 30.22 in 10.0 mi South 12.7 mph 17.3 mph N/A   Overcast
12:54 AM 24.8 °F 16.1 °F 21.2 °F 86% 30.22 in 10.0 mi South 8.1 mph 18.4 mph N/A   Overcast
1:15 AM 24.8 °F 16.1 °F 21.2 °F 86% 30.22 in 10.0 mi South 8.1 mph 17.3 mph N/A   Overcast
1:34 AM 24.8 °F 15.3 °F 21.2 °F 86% 30.23 in 10.0 mi South 9.2 mph 16.1 mph N/A   Overcast
1:55 AM 24.8 °F 16.9 °F 21.2 °F 86% 30.23 in 10.0 mi South 6.9 mph - N/A   Overcast
2:15 AM 24.8 °F 16.1 °F 21.2 °F 86% 30.23 in 10.0 mi South 8.1 mph - N/A   Overcast
2:34 AM 24.8 °F 16.9 °F 21.2 °F 86% 30.23 in 10.0 mi South 6.9 mph - N/A   Overcast
2:55 AM 24.8 °F 16.1 °F 21.2 °F 86% 30.22 in 10.0 mi South 8.1 mph - N/A   Overcast
3:15 AM 23.0 °F 13.9 °F 21.2 °F 93% 30.23 in 10.0 mi SSW 8.1 mph - N/A   Overcast
3:34 AM 23.0 °F 13.9 °F 21.2 °F 93% 30.22 in 10.0 mi South 8.1 mph - N/A   Overcast
3:55 AM 23.0 °F 13.9 °F 21.2 °F 93% 30.22 in 10.0 mi South 8.1 mph - N/A   Overcast
4:15 AM 23.0 °F 18.4 °F 21.2 °F 93% 30.22 in 10.0 mi South 3.5 mph - N/A   Overcast
4:34 AM 23.0 °F 17.0 °F 21.2 °F 93% 30.22 in 10.0 mi South 4.6 mph - N/A   Overcast
4:55 AM 23.0 °F 15.8 °F 21.2 °F 93% 30.22 in 7.0 mi South 5.8 mph - N/A   Overcast
5:15 AM 23.0 °F 15.8 °F 21.2 °F 93% 30.23 in 7.0 mi South 5.8 mph - N/A   Overcast
5:35 AM 21.2 °F 14.9 °F 21.2 °F 100% 30.23 in 7.0 mi South 4.6 mph - N/A   Overcast
6:14 AM 21.2 °F 10.9 °F 21.2 °F 100% 30.23 in 7.0 mi South 9.2 mph - N/A   Overcast
6:35 AM 21.2 °F 10.1 °F 21.2 °F 100% 30.23 in 7.0 mi SSE 10.4 mph - N/A   Overcast
6:55 AM 21.2 °F 10.1 °F 21.2 °F 100% 30.23 in 7.0 mi South 10.4 mph - N/A   Overcast
7:14 AM 21.2 °F 9.5 °F 19.4 °F 93% 30.23 in 5.0 mi South 11.5 mph - N/A   Overcast
7:35 AM 21.2 °F 10.9 °F 19.4 °F 93% 30.23 in 5.0 mi South 9.2 mph - N/A   Overcast
7:55 AM 21.2 °F 14.9 °F 19.4 °F 93% 30.24 in 5.0 mi South 4.6 mph - N/A   Overcast
8:14 AM 21.2 °F 14.9 °F 19.4 °F 93% 30.25 in 5.0 mi South 4.6 mph - N/A   Overcast
8:35 AM 21.2 °F - 19.4 °F 93% 30.25 in 5.0 mi Calm Calm - N/A   Overcast
8:55 AM 21.2 °F 14.9 °F 21.2 °F 100% 30.25 in 5.0 mi South 4.6 mph - N/A   Overcast
9:14 AM 21.2 °F 13.6 °F 21.2 °F 100% 30.25 in 5.0 mi South 5.8 mph - N/A   Overcast
9:35 AM 21.2 °F 13.6 °F 21.2 °F 100% 30.24 in 5.0 mi South 5.8 mph - N/A   Overcast
9:54 AM 21.2 °F 13.6 °F 21.2 °F 100% 30.25 in 5.0 mi South 5.8 mph - N/A   Overcast
10:15 AM 21.2 °F 12.6 °F 21.2 °F 100% 30.24 in 5.0 mi SSE 6.9 mph - N/A   Overcast
10:35 AM 23.0 °F 13.1 °F 21.2 °F 93% 30.24 in 5.0 mi SSE 9.2 mph - N/A   Overcast
10:54 AM 23.0 °F 13.1 °F 21.2 °F 93% 30.24 in 4.0 mi South 9.2 mph - N/A   Overcast
11:15 AM 23.0 °F 12.4 °F 21.2 °F 93% 30.24 in 5.0 mi SSE 10.4 mph - N/A   Overcast
11:35 AM 24.8 °F 16.1 °F 23.0 °F 93% 30.23 in 4.0 mi SSE 8.1 mph - N/A   Overcast
11:54 AM 24.8 °F 16.1 °F 23.0 °F 93% 30.23 in 4.0 mi SSE 8.1 mph - N/A   Overcast
12:15 PM 26.6 °F - 24.8 °F 93% 30.23 in 4.0 mi Calm Calm - N/A   Overcast
12:34 PM 26.6 °F 21.2 °F 24.8 °F 93% 30.22 in 4.0 mi South 4.6 mph - N/A   Mostly Cloudy
12:55 PM 26.6 °F - 24.8 °F 93% 30.22 in 4.0 mi Calm Calm - N/A   Scattered Clouds
1:15 PM 26.6 °F 20.0 °F 24.8 °F 93% 30.22 in 4.0 mi South 5.8 mph - N/A   Scattered Clouds
1:34 PM 26.6 °F - 24.8 °F 93% 30.21 in 4.0 mi Calm Calm - N/A   Clear
1:55 PM 26.6 °F - 24.8 °F 93% 30.21 in 4.0 mi Calm Calm - N/A   Clear
2:15 PM 26.6 °F - 24.8 °F 93% 30.22 in 4.0 mi Calm Calm - N/A   Clear
2:34 PM 26.6 °F 22.6 °F 26.6 °F 100% 30.22 in 4.0 mi SW 3.5 mph - N/A   Clear
2:55 PM 26.6 °F 22.6 °F 26.6 °F 100% 30.22 in 4.0 mi SSW 3.5 mph - N/A   Clear
3:15 PM 26.6 °F - 26.6 °F 100% 30.21 in 4.0 mi Calm Calm - N/A   Clear
3:34 PM 26.6 °F - 26.6 °F 100% 30.20 in 4.0 mi Calm Calm - N/A   Clear
3:55 PM 28.4 °F - 26.6 °F 93% 30.19 in 4.0 mi Calm Calm - N/A   Clear
4:15 PM 28.4 °F - 26.6 °F 93% 30.19 in 4.0 mi Calm Calm - N/A   Clear
4:35 PM 28.4 °F - 26.6 °F 93% 30.18 in 4.0 mi Calm Calm - N/A   Clear
4:55 PM 28.4 °F - 26.6 °F 93% 30.17 in 4.0 mi Calm Calm - N/A   Clear
5:14 PM 28.4 °F - 26.6 °F 93% 30.17 in 4.0 mi Calm Calm - N/A   Clear
5:35 PM 28.4 °F - 26.6 °F 93% 30.15 in 4.0 mi Calm Calm - N/A   Clear
5:55 PM 28.4 °F - 26.6 °F 93% 30.14 in 4.0 mi Calm Calm - N/A   Mostly Cloudy
6:14 PM 28.4 °F - 26.6 °F 93% 30.15 in 4.0 mi Calm Calm - N/A   Overcast
6:35 PM 28.4 °F - 26.6 °F 93% 30.15 in 4.0 mi Calm Calm - N/A   Mostly Cloudy
6:55 PM 26.6 °F 21.2 °F 26.6 °F 100% 30.13 in 5.0 mi NNE 4.6 mph - N/A   Scattered Clouds
7:14 PM 26.6 °F 20.0 °F 26.6 °F 100% 30.13 in 5.0 mi North 5.8 mph - N/A   Clear
7:35 PM 26.6 °F 21.2 °F 26.6 °F 100% 30.12 in 5.0 mi NE 4.6 mph - N/A   Clear
7:55 PM 26.6 °F - 26.6 °F 100% 30.13 in 5.0 mi Calm Calm - N/A   Clear
8:14 PM 26.6 °F 21.2 °F 26.6 °F 100% 30.12 in 4.0 mi NE 4.6 mph - N/A   Clear
8:35 PM 26.6 °F 20.0 °F 26.6 °F 100% 30.11 in 5.0 mi NE 5.8 mph - N/A   Clear
8:55 PM 26.6 °F 20.0 °F 26.6 °F 100% 30.10 in 5.0 mi NE 5.8 mph - N/A   Clear
9:15 PM 26.6 °F 20.0 °F 26.6 °F 100% 30.10 in 5.0 mi ENE 5.8 mph - N/A   Clear
9:35 PM 26.6 °F 20.0 °F 26.6 °F 100% 30.10 in 7.0 mi NE 5.8 mph - N/A   Scattered Clouds
9:54 PM 26.6 °F 20.0 °F 26.6 °F 100% 30.10 in 7.0 mi NE 5.8 mph - N/A   Scattered Clouds
10:15 PM 26.6 °F 21.2 °F 26.6 °F 100% 30.09 in 7.0 mi ENE 4.6 mph - N/A   Scattered Clouds
10:35 PM 26.6 °F 19.1 °F 26.6 °F 100% 30.07 in 7.0 mi ENE 6.9 mph - N/A   Mostly Cloudy
10:54 PM 26.6 °F 21.2 °F 26.6 °F 100% 30.07 in 7.0 mi NE 4.6 mph - N/A   Overcast
11:15 PM 26.6 °F 20.0 °F 26.6 °F 100% 30.06 in 7.0 mi NE 5.8 mph - N/A   Overcast
11:35 PM 26.6 °F 20.0 °F 26.6 °F 100% 30.04 in 5.0 mi NE 5.8 mph - N/A   Overcast
11:54 PM 26.6 °F 20.0 °F 26.6 °F 100% 30.04 in 5.0 mi NNE 5.8 mph - N/A   Overcast